[[{"header":{"parameterUnit":"m.s-1","parameterCategory":1,"la1":30.2991,"la2":30.254,"lo1":-89.0895,"lo2":-89.0444,"dy":0.0017,"dx":0.0017,"nx":28,"ny":28,"refTime":"2024-05-22T21:00:00:Z","depth":0,"parameterNumber":2,"parameterNumberName":"U-component_of_WINDS"},"data":[0,0,0,0,0,0,0,0,0,0,0,0,0,0,0,0,0,0,0,0,0,0,0,0,0,0,0,0,0,0,0,0,0,0,0,0,0,0,0,0,0,0,0,0,0,0,0,0,0,0,0,0,0,0,0,0,0,0,-0.7797,-0.7798,0,-0.7845,-0.7846,-0.7846,-0.7851,-0.7851,-0.785,-0.785,-0.7898,-0.79,-0.7902,0,0,0,0,0,0,0,0,0,0,0,0,0,-0.7709,-0.7711,-0.7797,-0.7798,-0.7799,-0.7845,-0.7846,-0.7846,-0.7852,-0.7851,-0.785,-0.785,-0.7898,-0.79,-0.7902,0,0,0,0,0,0,0,0,0,0,0,0,0,-0.7751,-0.7711,-0.7797,-0.7807,-0.7808,-0.7845,-0.7846,-0.7847,-0.7852,-0.7851,-0.785,-0.785,-0.7897,-0.7899,-0.7902,-0.7933,0,0,-0.791,-0.7911,0,0,0,0,0,0,0,0,-0.7749,-0.7754,-0.7805,-0.7806,-0.7808,-0.7842,-0.7832,-0.7875,-0.7852,-0.7835,-0.785,-0.7849,-0.788,-0.7884,-0.7894,-0.7935,-0.7937,-0.791,-0.7912,-0.7913,-0.7914,0,0,0,0,0,0,0,-0.7746,-0.7752,-0.7816,-0.7805,-0.7807,-0.7808,-0.7813,-0.784,-0.7861,-0.7836,-0.7837,-0.7843,-0.7881,-0.7892,-0.7896,-0.7938,-0.791,-0.7912,-0.7914,-0.7915,-0.8005,-0.8006,0,0,0,0,0,0,-0.7741,-0.775,-0.7815,-0.7818,-0.7776,-0.781,-0.7816,-0.7831,-0.7861,-0.7864,-0.7843,-0.7843,-0.7888,-0.7892,-0.7897,-0.7935,-0.7913,-0.7915,-0.7917,-0.8004,-0.8005,-0.8006,0,0,0,0,0,0,-0.7739,-0.7747,-0.7813,-0.7784,-0.7792,-0.7813,-0.783,-0.7833,-0.7844,-0.7866,-0.7869,-0.7851,-0.7887,-0.7894,-0.7924,-0.7937,-0.7916,-0.7919,-0.8003,-0.8004,-0.8005,-0.8011,0,0,0,0,0,0,-0.7737,-0.7746,-0.7759,-0.7784,-0.7794,-0.7839,-0.7831,-0.7834,-0.7849,-0.7849,-0.7874,-0.7878,-0.7887,-0.792,-0.7926,-0.794,-0.7921,-0.8002,-0.8004,-0.8005,-0.8009,-0.8012,-0.8014,0,0,0,0,0,-0.7734,-0.7758,-0.7759,-0.7767,-0.781,-0.784,-0.7845,-0.7856,-0.785,-0.7862,-0.7876,-0.7877,-0.7934,-0.7923,-0.793,-0.7945,-0.8001,-0.8003,-0.8005,-0.8008,-0.8011,-0.8014,0,0,0,0,0,0,-0.7734,-0.7762,-0.7763,-0.7797,-0.7816,-0.7841,-0.7857,-0.7859,-0.788,-0.7879,-0.7891,-0.7897,-0.7927,-0.7938,-0.7926,-0.7976,-0.7967,-0.797,-0.7967,-0.797,-0.7972,-0.7969,-0.7923,0,0,0,0,0,-0.7738,-0.776,-0.7783,-0.781,-0.782,-0.7836,-0.785,-0.7857,-0.7877,-0.7885,-0.7901,-0.792,-0.7942,-0.7957,-0.7978,-0.8011,-0.8016,-0.8024,-0.8026,-0.8028,-0.8031,-0.8049,-0.8053,-0.8012,-0.8012,-0.8012,0,0,-0.7746,-0.7764,-0.7777,-0.7811,-0.7826,-0.7849,-0.7843,-0.7868,-0.7884,-0.7888,-0.7918,-0.793,-0.7952,-0.7984,-0.7998,-0.7994,-0.8044,-0.8031,-0.8032,-0.8034,-0.8051,-0.8055,-0.8059,-0.8013,-0.8013,-0.8013,0,0,-0.7773,-0.7789,-0.7813,-0.7829,-0.7852,-0.7863,-0.7869,-0.7893,-0.7901,-0.7931,-0.7934,-0.7954,-0.7992,-0.8008,-0.8021,-0.8052,-0.8054,-0.8058,-0.8071,-0.8088,-0.8091,-0.8094,-0.8106,-0.8109,-0.8061,-0.8061,-0.8061,0,-0.7781,-0.7815,-0.7826,-0.785,-0.7864,-0.7868,-0.7893,-0.7907,-0.7937,-0.7946,-0.7941,-0.7989,-0.8004,-0.8039,-0.8047,-0.8057,-0.8064,-0.8056,-0.809,-0.8093,-0.8096,-0.8107,-0.8111,-0.8062,-0.8062,-0.8062,-0.8061,0,-0.7823,-0.7847,-0.7864,-0.7892,-0.7908,-0.7932,-0.7946,-0.7961,-0.7965,-0.7976,-0.8006,-0.8024,-0.8049,-0.8058,-0.8063,-0.8093,-0.809,-0.8088,-0.8079,-0.81,-0.8111,-0.8115,-0.8062,-0.8062,-0.8062,-0.8062,0,0,-0.7853,-0.7886,-0.7892,-0.7905,-0.793,-0.7949,-0.7972,-0.7997,-0.801,-0.8029,-0.8049,-0.8081,-0.8078,-0.8093,-0.8099,-0.8114,-0.8138,-0.8109,-0.811,-0.8114,-0.8172,-0.8175,-0.818,-0.8138,-0.8139,-0.814,-0.8171,0,-0.7884,-0.7927,-0.7936,-0.7974,-0.7995,-0.7999,-0.802,-0.8037,-0.8048,-0.8067,-0.8078,-0.8101,-0.8095,-0.8104,-0.8119,-0.8132,-0.815,-0.8129,-0.8157,-0.8158,-0.8153,-0.8185,-0.8188,-0.8217,-0.8175,-0.8176,-0.8176,0,-0.7926,-0.7946,-0.7985,-0.8007,-0.8017,-0.8035,-0.8058,-0.8077,-0.8097,-0.8103,-0.8119,-0.8123,-0.8147,-0.8137,-0.817,-0.8156,-0.8168,-0.8176,-0.8177,-0.8181,-0.8169,-0.819,-0.8226,-0.823,-0.8183,-0.8182,-0.8182,0,-0.7944,-0.7981,-0.801,-0.802,-0.8046,-0.8059,-0.8071,-0.8089,-0.8103,-0.8123,-0.8132,-0.8154,-0.8167,-0.8183,-0.8193,-0.8185,-0.8226,-0.8216,-0.8232,-0.8232,-0.8242,-0.8241,-0.828,-0.8248,-0.8247,-0.8247,-0.8247,0,-0.7978,-0.8002,-0.8018,-0.8036,-0.8062,-0.8072,-0.8098,-0.8109,-0.8126,-0.8145,-0.8149,-0.8167,-0.8179,-0.8198,-0.8206,-0.8232,-0.8238,-0.8243,-0.8245,-0.8244,-0.8243,-0.8252,-0.8251,-0.8249,-0.8248,-0.8248,-0.8248,0,-0.8004,-0.8016,-0.8047,-0.8069,-0.8075,-0.8093,-0.8112,-0.8129,-0.8138,-0.8163,-0.8169,-0.8184,-0.8207,-0.8218,-0.8247,-0.8252,-0.8282,-0.8282,-0.8276,-0.8277,-0.8292,-0.8291,-0.8339,-0.8346,-0.8308,-0.8308,-0.8309,0,-0.8025,-0.8044,-0.8067,-0.808,-0.8092,-0.8113,-0.8128,-0.8137,-0.8152,-0.8175,-0.8189,-0.8212,-0.8231,-0.8267,-0.8281,-0.8302,-0.8303,-0.8319,-0.8307,-0.8304,-0.8304,-0.8303,-0.8305,-0.8321,-0.8322,-0.8322,-0.8322,0,-0.8062,-0.8066,-0.8087,-0.8109,-0.8126,-0.8144,-0.8161,-0.8172,-0.8184,-0.82,-0.8224,-0.8238,-0.8267,-0.829,-0.8312,-0.8323,-0.8325,-0.8326,-0.833,-0.833,-0.8325,-0.8328,-0.8283,-0.8325,-0.8325,-0.8324,-0.8324,-0.8324,-0.8087,-0.8103,-0.8122,-0.8144,-0.8158,-0.8174,-0.8191,-0.8203,-0.8223,-0.8247,-0.8251,-0.8276,-0.8294,-0.8324,-0.8336,-0.8355,-0.8352,-0.8358,-0.836,-0.8362,-0.8363,-0.8321,-0.8359,-0.8359,-0.8359,-0.8359,-0.8359,0,-0.8124,-0.8136,-0.8156,-0.8181,-0.8198,-0.8197,-0.8216,-0.8231,-0.8253,-0.8269,-0.8288,-0.8314,-0.8336,-0.8351,-0.8373,-0.8385,-0.8386,-0.8391,-0.839,-0.8393,-0.8365,-0.8359,-0.8389,-0.8389,-0.8389,-0.8389,-0.8389,-0.8389,-0.8146,-0.8173,-0.818,-0.8214,-0.8226,-0.8251,-0.8262,-0.8276,-0.8289,-0.8319,-0.8337,-0.8346,-0.8362,-0.8385,-0.8404,-0.8408,-0.8416,-0.8421,-0.8424,-0.8398,-0.8395,-0.8392,-0.8386,-0.8422,-0.8422,-0.8451,-0.8451,-0.8451]},{"header":{"parameterUnit":"m.s-1","parameterCategory":1,"la1":30.2991,"la2":30.254,"lo1":-89.0895,"lo2":-89.0444,"dy":0.0017,"dx":0.0017,"nx":28,"ny":28,"refTime":"2024-05-22T21:00:00:Z","depth":0,"parameterNumber":3,"parameterNumberName":"V-component_of_WINDS"},"data":[0,0,0,0,0,0,0,0,0,0,0,0,0,0,0,0,0,0,0,0,0,0,0,0,0,0,0,0,0,0,0,0,0,0,0,0,0,0,0,0,0,0,0,0,0,0,0,0,0,0,0,0,0,0,0,0,0,0,2.8961,2.8962,0,2.8994,2.8994,2.8995,2.8987,2.8986,2.8986,2.8985,2.9015,2.9016,2.9018,0,0,0,0,0,0,0,0,0,0,0,0,0,2.8888,2.889,2.8961,2.8962,2.8962,2.8994,2.8994,2.8995,2.8987,2.8986,2.8986,2.8985,2.9015,2.9016,2.9018,0,0,0,0,0,0,0,0,0,0,0,0,0,2.892,2.889,2.8961,2.8962,2.8963,2.8994,2.8994,2.8995,2.8987,2.8986,2.8985,2.8985,2.9014,2.9016,2.9018,2.9049,0,0,2.9024,2.9025,0,0,0,0,0,0,0,0,2.8918,2.8923,2.8962,2.8962,2.8963,2.8986,2.8979,2.9013,2.8988,2.8978,2.8985,2.8984,2.9006,2.9008,2.9016,2.905,2.9052,2.9024,2.9026,2.9027,2.9027,0,0,0,0,0,0,0,2.8916,2.8922,2.8974,2.8962,2.8963,2.896,2.8963,2.8986,2.8996,2.8979,2.8978,2.8982,2.9006,2.9014,2.9017,2.9052,2.9024,2.9026,2.9027,2.9028,2.911,2.9111,0,0,0,0,0,0,2.8914,2.892,2.8973,2.8975,2.8938,2.8962,2.8966,2.8979,2.8996,2.8998,2.8983,2.8982,2.9011,2.9015,2.9018,2.9053,2.9027,2.9028,2.903,2.9109,2.9111,2.9112,0,0,0,0,0,0,2.8913,2.8919,2.8972,2.8947,2.8954,2.8964,2.8979,2.898,2.8989,2.9,2.9001,2.899,2.9011,2.9015,2.9041,2.9054,2.9029,2.9031,2.9108,2.911,2.9111,2.9126,0,0,0,0,0,0,2.8911,2.8919,2.8932,2.8948,2.8955,2.8996,2.898,2.8982,2.8993,2.8992,2.9007,2.9008,2.901,2.9038,2.9043,2.9057,2.9033,2.9107,2.9109,2.9111,2.9124,2.9128,2.9131,0,0,0,0,0,2.8908,2.8934,2.8932,2.8939,2.8972,2.8996,2.9001,2.9004,2.8994,2.9006,2.9013,2.9008,2.9053,2.9041,2.9046,2.9061,2.9106,2.9108,2.9111,2.9123,2.9127,2.913,0,0,0,0,0,0,2.8919,2.8936,2.8934,2.8967,2.898,2.8995,2.9011,2.9008,2.9024,2.9022,2.9024,2.9027,2.9053,2.906,2.9046,2.9091,2.9078,2.9081,2.9085,2.9089,2.9092,2.9089,2.9035,0,0,0,0,0,2.8925,2.8945,2.8959,2.8986,2.8993,2.9001,2.9012,2.9013,2.9026,2.9031,2.904,2.9052,2.9069,2.908,2.9096,2.9125,2.9127,2.9138,2.9141,2.9144,2.9146,2.916,2.9165,2.9119,2.9119,2.9119,0,0,2.8938,2.895,2.8962,2.8988,2.8999,2.9017,2.9005,2.9026,2.9039,2.9034,2.9059,2.9066,2.9079,2.9107,2.9119,2.9113,2.916,2.9147,2.9149,2.915,2.9163,2.9167,2.9171,2.912,2.912,2.912,0,0,2.897,2.8982,2.9005,2.9016,2.9032,2.9037,2.9043,2.9058,2.9062,2.9087,2.9083,2.9098,2.9127,2.9137,2.9145,2.918,2.9175,2.9185,2.9201,2.9215,2.9218,2.9221,2.9232,2.9236,2.9188,2.9188,2.9188,0,2.8984,2.9013,2.9017,2.9038,2.9049,2.9046,2.9067,2.9077,2.9098,2.9104,2.9097,2.9133,2.9142,2.917,2.9179,2.9186,2.9191,2.9183,2.9218,2.9221,2.9224,2.9234,2.9238,2.9189,2.9188,2.9188,2.9188,0,2.9028,2.9048,2.9064,2.9084,2.9097,2.9118,2.9124,2.9136,2.9136,2.9141,2.9165,2.9176,2.9193,2.92,2.92,2.9228,2.9224,2.9217,2.9204,2.9229,2.9238,2.9242,2.919,2.919,2.9189,2.9189,0,0,2.9068,2.9089,2.9095,2.9103,2.912,2.9135,2.9155,2.9173,2.9182,2.9196,2.9212,2.9236,2.923,2.9239,2.924,2.9253,2.9277,2.9245,2.9245,2.9249,2.9306,2.9309,2.9314,2.9274,2.9275,2.9276,2.9304,0,2.91,2.9137,2.9141,2.9173,2.919,2.9187,2.9204,2.9216,2.9221,2.9235,2.924,2.9257,2.9248,2.9254,2.9266,2.9271,2.9288,2.927,2.9287,2.9288,2.9282,2.9319,2.9323,2.9349,2.9308,2.9309,2.9309,0,2.9143,2.9158,2.9192,2.9205,2.9213,2.9229,2.9244,2.9258,2.927,2.9273,2.9284,2.9282,2.9301,2.9289,2.9314,2.9301,2.9308,2.9312,2.9313,2.9313,2.9299,2.9319,2.9358,2.9361,2.9315,2.9315,2.9314,0,2.9166,2.9195,2.9219,2.9226,2.9243,2.9253,2.926,2.9272,2.9282,2.9295,2.9301,2.9316,2.9324,2.9335,2.9337,2.9328,2.9361,2.9349,2.9362,2.9362,2.9368,2.9368,2.9408,2.9376,2.9376,2.9376,2.9376,0,2.9201,2.9221,2.9229,2.9244,2.9266,2.9269,2.929,2.9297,2.9307,2.9321,2.9319,2.9332,2.9335,2.9349,2.9351,2.937,2.9374,2.9375,2.9375,2.9374,2.9374,2.9378,2.9376,2.9377,2.9377,2.9376,2.9376,0,2.923,2.9236,2.9262,2.9275,2.9279,2.9294,2.9305,2.9318,2.9322,2.934,2.9344,2.9351,2.9367,2.9371,2.9389,2.939,2.9412,2.9411,2.9408,2.9408,2.942,2.9418,2.9463,2.9468,2.9434,2.9435,2.9435,0,2.9251,2.9267,2.9282,2.9291,2.9299,2.9315,2.9325,2.9328,2.9338,2.9353,2.9363,2.9379,2.9391,2.9416,2.9421,2.9435,2.9433,2.9448,2.9435,2.9433,2.9431,2.9429,2.943,2.945,2.945,2.945,2.9451,0,2.9287,2.9289,2.9304,2.932,2.9332,2.9344,2.9356,2.9363,2.9368,2.9379,2.9395,2.9405,2.9424,2.9438,2.9452,2.9457,2.9454,2.9455,2.9458,2.9457,2.9454,2.9454,2.9413,2.9453,2.9453,2.9453,2.9453,2.9453,2.9312,2.9325,2.9337,2.9353,2.9362,2.9373,2.9385,2.9391,2.9405,2.942,2.9421,2.9438,2.9448,2.9466,2.9473,2.9485,2.948,2.9486,2.9487,2.9488,2.9488,2.9453,2.9488,2.9488,2.9488,2.9487,2.9487,0,2.9346,2.9353,2.9368,2.9384,2.9397,2.9394,2.9406,2.9416,2.9431,2.9441,2.9453,2.9471,2.9485,2.9492,2.9505,2.9513,2.9512,2.9516,2.9515,2.9516,2.9492,2.9487,2.9517,2.9517,2.9517,2.9517,2.9517,2.9517,2.9365,2.9386,2.9389,2.9414,2.9421,2.9438,2.9445,2.9454,2.9462,2.9482,2.9494,2.9498,2.9507,2.952,2.9532,2.9534,2.9538,2.9543,2.9544,2.9521,2.9518,2.9515,2.951,2.9544,2.9544,2.9566,2.9566,2.9566]}]]